[Iaude] MPEC D01: 2024 CU6 [a=1.18,e=0.16,i=6.1,H=26.4]

mpec at cfa.harvard.edu mpec at cfa.harvard.edu
Thu Feb 15 23:37:50 EST 2024


M.P.E.C. 2024-D01                             Issued 2024 February 16, 04:36 UT

     The Minor Planet Electronic Circulars contain information on unusual
         minor planets, routine data on comets and natural satellites,
         and occasional editorial announcements.  They are published
    on behalf of Division F of the International Astronomical Union by the
          Minor Planet Center, Smithsonian Astrophysical Observatory,
                          Cambridge, MA 02138, U.S.A.
			  
             Prepared using the Tamkin Foundation Computer Network

                              MPC at CFA.HARVARD.EDU
            URL https://www.minorplanetcenter.net/    ISSN 1523-6714

                                    2024 CU6                                    


Observations:
     K24C06U* C2024 02 12.52042009 31 42.486+24 40 55.82         22.05wXED001F52
     K24C06U  C2024 02 12.54374809 31 37.498+24 39 56.77         22.01wXED001F52
     K24C06U  C2024 02 12.55538209 31 34.985+24 39 27.27         22.14wXED001F52
     K24C06U  C2024 02 12.63366809 31 19.038+24 36 02.74         22.40GVED001F52
     K24C06U  C2024 02 12.63431309 31 18.899+24 36 00.96         21.62GVED001F52
     K24C06U KC2024 02 13.44611 09 28 50.01 +24 02 02.8          22.5 RVED001291
     K24C06U KC2024 02 13.45118 09 28 48.92 +24 01 48.1          21.7 RVED001291
     K24C06U KC2024 02 13.45627 09 28 47.91 +24 01 34.1                VED001291
     K24C06U KC2024 02 16.15941809 20 00.510+21 53 02.40         21.16GVED001V06
     K24C06U KC2024 02 16.16281709 19 59.689+21 52 52.28         22.20GVED001V06
     K24C06U KC2024 02 16.16621309 19 58.915+21 52 42.20         21.37GVED001V06
     K24C06U KC2024 02 16.16960609 19 58.112+21 52 32.23         21.64GVED001V06

Observer details:
291 LPL/Spacewatch II.  Observer M. T. Read.  1.8-m f/2.7 reflector + CCD.
F52 Pan-STARRS 2, Haleakala.  Observers J. Herman, T. Lowe, P. Minguez, A.
    Schultz, I. Smith.  Measurers K. Chambers, T. de Boer, J. Fairlamb, H.
    Gao, M. Huber, C.-C. Lin, E. Magnier, Y. Ramanjooloo, R. Wainscoat, R.
    Weryk.  1.8-m Ritchey-Chretien + CCD.
V06 Catalina Sky Survey-Kuiper.  Observer J. B. Fazekas.  Measurers T. Beuden,
    V. F. Carvajal, D. Fay, J. B. Fazekas, D. C. Fuls, A. R. Gibbs, A. D.
    Grauer, H. Groeller, J. K. Hogan, R. A. Kowalski, S. M. Larson, G. J.
    Leonard, D. Rankin, R. L. Seaman, F. C. Shelly, K. W. Wierzchos.  1.55-m
    reflector + 1K CCD.

Orbital elements:
2024 CU6                                                 Earth MOID = 0.0440 AU
Epoch 2024 Mar. 31.0 TT = JDT 2460400.5                 MPC                     
M 344.42873              (2000.0)            P               Q                  
n   0.77328176     Peri.  241.35105     -0.85028253     +0.52365398             
a   1.1755584      Node   330.13556     -0.43810215     -0.75994117             
e   0.1644151      Incl.    6.10680     -0.29169526     -0.38506613             
P   1.27           H   26.48          G   0.15           U   9                  
Residuals in seconds of arc
240212 F52  0.0   0.4-    240212 F52  0.1-  0.0     240216 V06  0.0   0.1-
240212 F52  0.4+  0.2-    240213 291  0.1-  0.5+    240216 V06  0.3-  0.1-
240212 F52  0.2-  0.1+    240213 291  0.3-  0.3-    240216 V06  0.1+  0.0
240212 F52  0.1+  0.1+    240213 291  0.6+  0.3-    240216 V06  0.1+  0.2+

Ephemeris:
2024 CU6                 a,e,i = 1.18, 0.16, 6                   q = 0.9823
Date    TT    R. A. (2000) Decl.     Delta      r    Elong.  Phase     V
2024 01 17    10 08 16.8 +31 53 10   0.1897  1.1486   147.8    27.2    24.4
...
2024 02 01    09 57 49.1 +29 44 39   0.1304  1.1093   161.1    16.8    23.2
...
2024 02 09    09 41 35.7 +26 44 48   0.1046  1.0889   167.8    11.0    22.5
...
2024 02 15    09 23 52.8 +22 51 44   0.08825 1.0741   168.3    10.8    22.0
2024 02 16    09 20 29.2 +22 01 51   0.08580 1.0717   167.6    11.4    22.0
2024 02 17    09 16 58.3 +21 08 21   0.08343 1.0693   166.7    12.3    22.0
...
2024 02 23    08 53 30.6 +14 22 28   0.07094 1.0553   158.1    20.5    21.9
...
2024 03 02    08 16 43.9 +01 11 31   0.05954 1.0379   140.9    37.1    21.9
...
2024 03 17    06 56 44.5 -30 15 26   0.05658 1.0104   104.2    72.7    22.8

                      (Last issue was M.P.E.C. 2024-C196)                       

A. U. Tomatic                (C) Copyright 2024 MPC           M.P.E.C. 2024-D01





More information about the Iaude mailing list